Hourly Weather Roundup
Issued by NWS Central Illinois

Home | Current Version | Previous Version | Text Only | Print | Product List | Glossary On
Versions: 1 2 3 4 5 6 7 8 9 10 11 12 13 14 15 16 17 18 19 20 21 22 23 24 25 26 27 28 29 30 31 32 33 34 35 36 37 38 39 40 41 42 43 44 45 46 47 48 49 50
000
NZUS43 KILX 221310
HWRILX

AREA WEATHER ROUNDUP
NATIONAL WEATHER SERVICE, LINCOLN IL
800 AM CDT TUE JUL 22 2014


CITY           SKY/WX    TMP DP  RH WIND       PRES   REMARKS
BLOOMINGTON    SUNNY     69  64  84 S10       30.10F
CHAMPAIGN      SUNNY     70  66  87 SW6       30.11S FOG
DECATUR        SUNNY     74  66  76 S6        30.10S
FLORA          SUNNY     70  67  90 CALM      30.11S FOG
GALESBURG      SUNNY     73  68  84 S12       30.02S
JACKSONVILLE   SUNNY     76  68  77 S9        30.07F
LACON          SUNNY     73  66  77 S7        30.02F
LAWRENCEVILLE  SUNNY     72  69  90 CALM      30.10F FOG
LITCHFIELD     SUNNY     69  67  91 S6        30.10S FOG
$$


CITY           SKY/WX    TMP DP  RH WIND       PRES   REMARKS
LINCOLN        SUNNY     71  66  84 S6        30.06S
MACOMB         SUNNY     73  68  84 S12G18    30.03F
MATTOON        SUNNY     72  66  81 SW5       30.11R
MT CARMEL AP   SUNNY     72  70  94 CALM      30.10F FOG
OLNEY-NOBLE AP SUNNY     70  68  94 CALM      30.10F FOG
PARIS          SUNNY     72  69  92 CALM      30.12S FOG
PEORIA         SUNNY     74  66  76 S13       30.04F
PONTIAC        SUNNY     72  68  88 S7        30.06F
RANTOUL        SUNNY     73  66  80 SW6       30.11S
ROBINSON       SUNNY     70  70  99 CALM      30.11F FOG
SPRINGFIELD    SUNNY     75  67  76 SW8       30.08S
TAYLORVILLE    SUNNY     70  66  88 S6        30.10S
$$

...REGIONAL REPORTS...


CITY           SKY/WX    TMP DP  RH WIND       PRES   REMARKS
CHICAGO O`HARE MOSUNNY   76  62  62 S12       30.02F
KANKAKEE       SUNNY     72  67  84 S7        30.09F
MOLINE         MOSUNNY   77  68  73 SW10      29.99R
MOUNT VERNON   SUNNY     70  64  83 CALM      30.11F
PITTSFIELD     SUNNY     74  68  79 S7        30.07F
QUINCY         SUNNY     74  67  78 S13       30.03F
ROCKFORD       MOSUNNY   74  66  76 S13       30.00F
$$


CITY           SKY/WX    TMP DP  RH WIND       PRES   REMARKS
BURLINGTON     MOSUNNY   74  68  81 SW8G17    30.01R
CEDAR RAPIDS   MOSUNNY   77  70  79 S13       29.93F
DES MOINES     CLOUDY    80  74  81 SW10      29.93S HX  85
KIRKSVILLE     MOSUNNY   76  70  82 SW13      30.02F
OTTUMWA        CLOUDY    76  72  87 S13       29.95F
ST LOUIS       SUNNY     77  66  68 SW8       30.10S
$$


CITY           SKY/WX    TMP DP  RH WIND       PRES   REMARKS
TERRE HAUTE    SUNNY     71  67  87 CALM      30.11S
EVANSVILLE     SUNNY     74  68  81 CALM      30.11S HAZE
INDIANAPOLIS   SUNNY     75  65  70 SE6       30.12R
LAFAYETTE      SUNNY     70  65  84 CALM      30.11R
MADISON        PTSUNNY   76  67  73 S10       29.95S
MILWAUKEE      MOSUNNY   75  65  70 S18       29.97F
$$




USA.gov is the U.S. government's official web portal to all federal, state and local government web resources and services.